Location: *
(33.9928°S, 61.5716°E)
Time: 10:32:38
(UTC+00:00)

Daily predictions for brighter satellites

Satellite Brightness Start Highest point End
(mag) Time Altitude Azimuth Time Altitude Azimuth Time Altitude Azimuth
H-2A R/B 3.0 13:27:33 10° NW 13:30:50 44° NNE 13:42:56 10° E
Cosmos 2151 3.8 13:43:52 10° SSW 13:48:07 58° W 13:52:18 10° N
Cosmos 1408 Rocket 4.0 13:44:47 10° S 13:49:03 41° E 13:53:16 10° NNE
PAYLOAD B 4.3 13:43:40 10° SSE 13:49:22 88° ENE 13:54:59 10° NNW
COSMOS 2406 3.6 13:43:35 10° SSW 13:49:23 75° WNW 13:55:09 10° NNE
RESURS DK-1 3.6 13:46:30 10° NNE 13:49:46 22° ENE 13:53:03 10° SE
Cosmos 2084 Rocket 4.2 13:47:22 10° SSW 13:51:12 32° SE 13:54:58 10° ENE
Cosmos 614 Rocket 4.0 13:46:32 10° S 13:51:34 55° ESE 13:56:34 10° NNE
NOAA 6 4.2 13:48:03 10° S 13:53:19 82° WSW 13:58:30 10° NNW
ARGOS Delta rocket 4.0 13:48:26 10° SSE 13:53:27 72° E 13:58:42 10° N
Cosmos 1624 Rocket 4.0 13:49:00 10° N 13:54:16 73° ENE 13:59:38 10° SSE
CZ-4B R/B 3.2 13:49:46 10° SSE 13:55:15 70° ENE 14:00:34 10° N
Cosmos 2082 Rocket 2.5 13:50:21 10° S 13:55:54 47° ESE 14:01:24 10° NE
Aureole 1 Rocket 4.4 13:55:47 10° SSE 13:58:03 15° ESE 14:00:36 10° ENE
CZ-4C R/B 3.9 13:53:02 10° NNE 13:59:48 28° ENE 14:06:04 10° SE
SL-8 Rocket 4.2 13:53:49 10° S 13:59:52 50° E 14:05:49 10° NNE
OAO 1 Rocket 4.5 13:54:51 10° W 14:00:13 89° N 14:05:34 10° ENE
ATLAS 2AS CENTAUR R/B 2.9 13:54:25 10° NW 14:00:34 65° WSW 14:06:43 10° SSE
Envisat 3.0 13:55:57 10° SSE 14:01:07 76° ENE 14:06:12 10° N
Okean 3 Rocket 4.2 13:57:46 10° SSW 14:02:12 61° W 14:06:33 10° N
Delta 2 Rocket 4.1 13:58:34 10° W 14:03:47 66° NNW 14:08:23 10° ENE
Cosmos 371 Rocket 3.6 13:59:43 10° N 14:04:19 46° ENE 14:09:00 10° SSE
Helios 1A Rocket 4.1 14:01:29 10° SE 14:04:47 22° E 14:08:01 10° NNE
Cosmos 1867 4.3 14:00:41 10° SW 14:05:59 58° WNW 14:11:16 10° NNE
Cosmos 1420 Rocket 4.3 14:01:19 10° N 14:06:19 46° ENE 14:11:21 10° SSE
USA 116 4.2 14:05:43 10° N 14:08:44 49° W 14:11:52 10° SSW
Cosmos 1939 Rocket 4.3 14:07:04 12° ESE 14:09:08 17° E 14:11:43 10° NE
COSMOS 2455 3.0 14:04:15 10° N 14:10:03 53° ENE 14:15:55 10° SE
Cosmos 2341 Rocket 4.0 14:03:57 10° S 14:10:16 86° E 14:16:30 10° N
ATLAS 3B R/B 3.6 14:06:05 10° S 14:12:11 28° SE 14:17:18 13° E
Cosmos 1346 Rocket 4.1 14:08:41 10° SSW 14:12:31 44° W 14:16:18 10° NNW
Cosmos 1500 Rocket 4.1 14:09:28 10° SSE 14:13:35 37° E 14:17:38 10° NNE
Meteor 2-2 Rocket 4.3 14:09:06 10° N 14:14:54 67° E 14:20:54 10° SSE
Okean-O 3.9 14:13:40 13° SE 14:16:10 20° E 14:19:26 10° NE
CREW DRAGON DEMO-1 DEB 3.7 14:14:58 10° NNW 14:17:46 32° NE 14:19:02 23° E
Cosmos 2181 Rocket 4.3 14:17:11 10° N 14:23:25 76° W 14:29:51 10° S
Meteor 2-12 Rocket 4.4 14:17:31 10° S 14:23:45 81° E 14:29:55 10° N
OAO 2 Rocket 3.3 14:21:29 10° W 14:26:34 87° S 14:29:58 22° E
USA 238 DEB 4.4 14:20:18 10° SW 14:26:55 55° WNW 14:33:18 10° N
USA 238 4.4 14:20:25 10° SW 14:27:02 56° WNW 14:33:24 10° NNE
NOAA 12 4.1 14:21:42 10° SSE 14:27:08 89° W 14:32:29 10° NNW
H-2A R/B 3.5 14:23:30 10° WNW 14:27:35 55° N 14:47:22 13° ENE
DELTA 2 R/B (1) 3.6 14:22:28 10° WNW 14:28:03 84° NNE 14:31:45 22° ESE
Okean O Rocket 2.7 14:24:09 10° S 14:28:23 47° WSW 14:32:34 10° NNW
CORIOLIS 4.2 14:26:17 10° SSE 14:31:45 84° WSW 14:37:11 10° NNW
Hubble Space Telescope 2.0 14:29:01 10° WNW 14:32:49 34° N 14:35:24 17° NE
GPS 2-04 Rocket1 4.3 14:30:33 10° NNW 14:33:15 19° NNE 14:34:02 18° NE
MOS 1 Rocket 3.2 14:28:52 10° NNE 14:33:44 75° ESE 14:38:22 10° S
FengYun 1-2 T 4.2 14:29:20 10° SSE 14:34:59 69° ENE 14:40:30 10° N
Cosmos 2221 3.3 14:31:52 10° NNW 14:36:04 53° W 14:40:22 10° S
Cosmos 1633 3.2 14:32:39 10° SSW 14:36:16 57° W 14:39:48 10° N
Cosmos 1954 Rocket 4.2 14:31:16 10° S 14:36:22 47° ESE 14:41:26 10° NE
Cosmos 2218 Rocket 4.0 14:29:57 10° S 14:36:24 86° E 14:42:40 10° N
Cosmos 1805 Rocket 4.2 14:33:08 10° SSE 14:37:06 31° ESE 14:38:51 23° ENE
Cosmos 1862 3.8 14:35:12 10° SSE 14:38:59 37° E 14:42:45 10° NNE
Cosmos 1833 Rocket 4.3 14:35:25 10° SW 14:40:35 37° WNW 14:45:41 10° N
Cosmos 2369 Rocket 2.4 14:38:13 10° N 14:43:40 48° ENE 14:47:21 20° SE
DMSP B5D2-2 4.2 14:39:08 10° NNE 14:44:17 54° ESE 14:49:29 10° S
deb Kosmos-1763 3.8 14:42:06 10° SSW 14:45:45 83° ESE 14:49:20 10° NNE
CENTAUR R/B 2.5 14:41:28 10° SW 14:46:53 63° WNW 14:51:57 10° NNE
CZ-2C R/B 2.6 14:41:36 10° NNE 14:46:56 62° ESE 14:52:28 10° S
Cosmos 407 Rocket 4.2 14:43:38 10° SSW 14:48:54 57° WNW 14:54:08 10° N
Cosmos 1190 Rocket 4.2 14:43:43 10° SSW 14:48:57 73° WNW 14:54:09 10° N
Lacrosse 5 rocket 4.0 14:57:04 10° SW 14:57:41 10° SW 14:58:17 10° SSW
CZ-4 R/B 4.3 14:56:21 26° SSE 14:58:38 71° ENE 15:02:48 10° N
Atlas Centaur 2 2.5 14:55:46 10° WNW 14:59:04 28° NNW 14:59:54 25° N
Cosmos 304 Rocket 3.6 14:54:27 10° NNW 14:59:14 81° ENE 15:02:11 24° SSE
Cosmos 1943 Rocket 2.3 14:58:58 10° NNW 15:04:28 71° WSW 15:09:44 11° SSE
CZ-4 R/B 2.7 15:07:09 26° N 15:07:09 26° N 15:08:59 10° N
Cosmos 1140 Rocket 4.4 15:01:46 10° SSW 15:06:49 50° WNW 15:11:50 10° N
Nadezhda 3 Rocket 3.9 15:03:53 10° N 15:10:02 83° E 15:16:20 10° S
CZ-2D R/B 3.9 15:12:00 44° N 15:12:00 44° N 15:14:41 10° N
YAOGAN 1 4.1 15:16:40 24° N 15:16:40 24° N 15:18:29 10° N
Cosmos 1452 Rocket 4.1 15:12:42 10° NNW 15:17:52 55° WSW 15:23:04 10° S
Cosmos 1441 Rocket 4.1 15:20:22 10° SSW 15:24:16 49° W 15:26:04 27° NNW
BREEZE-M R/B 3.7 15:20:10 10° NW 15:23:29 43° WNW 15:23:29 43° WNW
Cosmos 1821 Rocket 3.8 15:23:32 10° S 15:29:44 88° E 15:35:51 10° N
CZ-3 Stage 3 3.8 15:33:02 10° WNW 15:34:51 22° NW 15:34:51 22° NW
CZ-4C R/B 3.3 15:39:55 10° NW 15:48:11 63° WSW 15:51:48 33° S
Okean-O 4.4 15:51:13 25° SW 15:52:37 30° WSW 15:56:30 10° NW
ATLAS 3B R/B 3.2 15:56:18 10° SW 16:03:13 55° WNW 16:04:39 47° NNW
Milstar 3 Cent rocket 3.8 16:06:38 10° WNW 16:08:53 24° WNW 16:08:53 24° WNW
Cosmos 2369 Rocket 4.4 16:23:37 10° WNW 16:27:55 21° WSW 16:29:15 20° SW
CZ-3 R/B 4.4 22:51:05 48° NNW 22:55:59 52° NNE 23:07:23 10° E
SL-16 R/B 4.5 23:43:40 15° SSE 23:43:40 15° SSE 23:44:39 10° SSE
